�ϑ��_��,����,�C��[��],�C�� �i�����,���x[%RH],���x �i�����,���n�C��[hPa],���n�C�� �i�����,�C�ʋC��[hPa],�C�ʋC�� �i�����,����[m/s],���� �i�����,����,���� �i�����,�ő�u�ԕ���[m/s],�ő�u�ԕ��� �i�����,�ő�u�ԕ���������,�ő�u�ԕ��������� �i�����,����[W/�u],���� �i�����,���J,���J �i�����,1���ԉJ��[mm/h],1���ԉJ�� �i�����,�ϐ��[cm],�ϐ�� �i�����,�~���[cm/h],�~��� �i�����,����[m],���� �i�����,���ʕω�,���ʕω� �i�����
�k�C���X�y�[�X�|�[�g(�����),2023/05/01 01:00:00,11.7,0,56,0,999.4,0,1002.3,0,2.7,0,�쐼,0,6.5,0,��쐼,0,0,0,�Ȃ�,0,0.0,0,,,,,,,,
�k�C���X�y�[�X�|�[�g(�����),2023/05/01 02:00:00,11.4,0,56,0,999.8,0,1002.7,0,3.0,0,���쐼,0,5.5,0,���k��,0,0,0,�Ȃ�,0,0.0,0,,,,,,,,
�k�C���X�y�[�X�|�[�g(�����),2023/05/01 03:00:00,11.6,0,57,0,1000.1,0,1003.0,0,1.5,0,�쐼,0,5.6,0,��,0,0,0,�Ȃ�,0,0.0,0,,,,,,,,
�k�C���X�y�[�X�|�[�g(�����),2023/05/01 04:00:00,13.0,0,54,0,1000.4,0,1003.3,0,2.0,0,�쐼,0,3.8,0,�쐼,0,0,0,�Ȃ�,0,0.0,0,,,,,,,,
�k�C���X�y�[�X�|�[�g(�����),2023/05/01 05:00:00,13.0,0,49,0,1000.8,0,1003.7,0,3.7,0,��,0,5.5,0,��,0,8,0,�Ȃ�,0,0.0,0,,,,,,,,
�k�C���X�y�[�X�|�[�g(�����),2023/05/01 06:00:00,13.5,0,46,0,1001.5,0,1004.4,0,3.2,0,��,0,7.2,0,��,0,65,0,�Ȃ�,0,0.0,0,,,,,,,,
�k�C���X�y�[�X�|�[�g(�����),2023/05/01 07:00:00,15.0,0,40,0,1002.0,0,1004.8,0,3.0,0,���k��,0,4.8,0,���k��,0,203,0,�Ȃ�,0,0.0,0,,,,,,,,
�k�C���X�y�[�X�|�[�g(�����),2023/05/01 08:00:00,16.0,0,37,0,1002.5,0,1005.3,0,3.8,0,��,0,8.2,0,���k��,0,402,0,�Ȃ�,0,0.0,0,,,,,,,,
�k�C���X�y�[�X�|�[�g(�����),2023/05/01 09:00:00,17.3,0,34,0,1002.8,0,1005.6,0,5.2,0,��,0,10.0,0,��,0,621,0,�Ȃ�,0,0.0,0,,,,,,,,
�k�C���X�y�[�X�|�[�g(�����),2023/05/01 10:00:00,17.3,0,31,0,1002.8,0,1005.6,0,8.1,0,��,0,12.5,0,��,0,826,0,�Ȃ�,0,0.0,0,,,,,,,,
�k�C���X�y�[�X�|�[�g(�����),2023/05/01 11:00:00,17.4,0,27,0,1002.7,0,1005.5,0,7.5,0,��,0,12.5,0,��,0,984,0,�Ȃ�,0,0.0,0,,,,,,,,
�k�C���X�y�[�X�|�[�g(�����),2023/05/01 12:00:00,17.7,0,27,0,1002.5,0,1005.3,0,8.3,0,���쐼,0,14.5,0,��,0,1023,0,�Ȃ�,0,0.0,0,,,,,,,,
�k�C���X�y�[�X�|�[�g(�����),2023/05/01 13:00:00,18.0,0,29,0,1002.5,0,1005.3,0,8.0,0,��,0,12.8,0,��,0,642,0,�Ȃ�,0,0.0,0,,,,,,,,
�k�C���X�y�[�X�|�[�g(�����),2023/05/01 14:00:00,18.5,0,32,0,1003.0,0,1005.8,0,6.0,0,��,0,14.0,0,��,0,784,0,�Ȃ�,0,0.0,0,,,,,,,,
�k�C���X�y�[�X�|�[�g(�����),2023/05/01 15:00:00,17.4,0,38,0,1003.2,0,1006.0,0,4.8,0,�쐼,0,15.2,0,���쐼,0,404,0,�Ȃ�,0,0.0,0,,,,,,,,
�k�C���X�y�[�X�|�[�g(�����),2023/05/01 16:00:00,16.2,0,41,0,1003.6,0,1006.4,0,7.3,0,���쐼,0,10.0,0,��,0,139,0,�Ȃ�,0,0.0,0,,,,,,,,
�k�C���X�y�[�X�|�[�g(�����),2023/05/01 17:00:00,15.5,0,45,0,1003.6,0,1006.4,0,7.5,0,���쐼,0,10.8,0,���쐼,0,54,0,�Ȃ�,0,0.0,0,,,,,,,,
�k�C���X�y�[�X�|�[�g(�����),2023/05/01 18:00:00,14.0,0,52,0,1004.3,0,1007.2,0,3.0,0,���쐼,0,11.9,0,���쐼,0,37,0,�Ȃ�,0,0.0,0,,,,,,,,
�k�C���X�y�[�X�|�[�g(�����),2023/05/01 19:00:00,13.1,0,54,0,1005.4,0,1008.3,0,3.7,0,�쐼,0,6.2,0,�쐼,0,2,0,�Ȃ�,0,0.0,0,,,,,,,,
�k�C���X�y�[�X�|�[�g(�����),2023/05/01 20:00:00,13.3,0,53,0,1006.1,0,1009.0,0,2.6,0,��쐼,0,4.6,0,�쐼,0,0,0,�Ȃ�,0,0.0,0,,,,,,,,
�k�C���X�y�[�X�|�[�g(�����),2023/05/01 21:00:00,12.5,0,58,0,1007.0,0,1009.9,0,2.5,0,��쐼,0,5.9,0,��쐼,0,0,0,�Ȃ�,0,0.0,0,,,,,,,,
�k�C���X�y�[�X�|�[�g(�����),2023/05/01 22:00:00,12.3,0,60,0,1006.9,0,1009.8,0,2.2,0,���쐼,0,4.6,0,���쐼,0,0,0,�Ȃ�,0,0.0,0,,,,,,,,
�k�C���X�y�[�X�|�[�g(�����),2023/05/01 23:00:00,12.1,0,61,0,1007.6,0,1010.5,0,1.7,0,���k��,0,3.6,0,���쐼,0,0,0,�Ȃ�,0,0.0,0,,,,,,,,
�k�C���X�y�[�X�|�[�g(�����),2023/05/02 00:00:00,11.8,0,61,0,1008.0,0,1010.9,0,1.6,0,�k�k��,0,6.0,0,�쐼,0,0,0,�Ȃ�,0,0.0,0,,,,,,,,
�k�C���X�y�[�X�|�[�g(�����),2023/05/02 01:00:00,8.1,0,77,0,1008.6,0,1011.5,0,1.9,0,�k��,0,8.4,0,�k��,0,0,0,�Ȃ�,0,0.0,0,,,,,,,,
�k�C���X�y�[�X�|�[�g(�����),2023/05/02 02:00:00,7.2,0,82,0,1009.4,0,1012.3,0,3.7,0,�k��,0,6.3,0,���k��,0,0,0,�Ȃ�,0,0.0,0,,,,,,,,
�k�C���X�y�[�X�|�[�g(�����),2023/05/02 03:00:00,6.2,0,85,0,1010.4,0,1013.4,0,2.1,0,���k��,0,6.2,0,�k��,0,0,0,�Ȃ�,0,0.0,0,,,,,,,,
�k�C���X�y�[�X�|�[�g(�����),2023/05/02 04:00:00,5.9,0,89,0,1011.1,0,1014.1,0,1.1,0,���k��,0,4.2,0,���k��,0,0,0,�Ȃ�,0,0.0,0,,,,,,,,
�k�C���X�y�[�X�|�[�g(�����),2023/05/02 05:00:00,5.9,0,92,0,1012.1,0,1015.1,0,0.6,0,�k��,0,2.6,0,��,0,0,0,����,0,0.0,0,,,,,,,,
�k�C���X�y�[�X�|�[�g(�����),2023/05/02 06:00:00,5.9,0,94,0,1013.0,0,1016.0,0,0.6,0,�k�k��,0,1.2,0,���k��,0,20,0,����,0,1.0,0,,,,,,,,
�k�C���X�y�[�X�|�[�g(�����),2023/05/02 07:00:00,7.1,0,93,0,1013.9,0,1016.9,0,0.6,0,�k��,0,1.7,0,��,0,120,0,�Ȃ�,0,0.0,0,,,,,,,,
�k�C���X�y�[�X�|�[�g(�����),2023/05/02 08:00:00,6.8,0,84,0,1014.8,0,1017.8,0,2.9,0,�쓌,0,4.2,0,���쓌,0,301,0,�Ȃ�,0,0.0,0,,,,,,,,
�k�C���X�y�[�X�|�[�g(�����),2023/05/02 09:00:00,8.0,0,83,0,1015.4,0,1018.4,0,2.2,0,��쓌,0,4.5,0,�쓌,0,461,0,�Ȃ�,0,0.0,0,,,,,,,,
�k�C���X�y�[�X�|�[�g(�����),2023/05/02 10:00:00,8.6,0,76,0,1015.5,0,1018.4,0,3.2,0,��쓌,0,5.8,0,���쓌,0,825,0,�Ȃ�,0,0.0,0,,,,,,,,
�k�C���X�y�[�X�|�[�g(�����),2023/05/02 11:00:00,8.9,0,75,0,1015.4,0,1018.3,0,3.8,0,��쓌,0,6.7,0,���쓌,0,973,0,�Ȃ�,0,0.0,0,,,,,,,,
�k�C���X�y�[�X�|�[�g(�����),2023/05/02 12:00:00,8.8,0,74,0,1015.3,0,1018.2,0,5.2,0,��,0,9.2,0,��,0,1038,0,�Ȃ�,0,0.0,0,,,,,,,,
�k�C���X�y�[�X�|�[�g(�����),2023/05/02 13:00:00,8.2,0,76,0,1015.5,0,1018.5,0,5.6,0,��,0,9.3,0,��쐼,0,1001,0,�Ȃ�,0,0.0,0,,,,,,,,
�k�C���X�y�[�X�|�[�g(�����),2023/05/02 14:00:00,10.6,0,63,0,1015.3,0,1018.2,0,5.0,0,��쐼,0,9.4,0,��,0,873,0,�Ȃ�,0,0.0,0,,,,,,,,
�k�C���X�y�[�X�|�[�g(�����),2023/05/02 15:00:00,10.8,0,61,0,1015.2,0,1018.1,0,4.3,0,��,0,7.6,0,��,0,686,0,�Ȃ�,0,0.0,0,,,,,,,,
�k�C���X�y�[�X�|�[�g(�����),2023/05/02 16:00:00,9.2,0,69,0,1015.0,0,1017.9,0,3.8,0,��쓌,0,8.0,0,��,0,471,0,�Ȃ�,0,0.0,0,,,,,,,,
�k�C���X�y�[�X�|�[�g(�����),2023/05/02 17:00:00,9.9,0,68,0,1015.1,0,1018.0,0,1.8,0,��,0,6.4,0,��,0,265,0,�Ȃ�,0,0.0,0,,,,,,,,
�k�C���X�y�[�X�|�[�g(�����),2023/05/02 18:00:00,10.0,0,63,0,1015.3,0,1018.2,0,1.2,0,��,0,3.1,0,��,0,95,0,�Ȃ�,0,0.0,0,,,,,,,,
�k�C���X�y�[�X�|�[�g(�����),2023/05/02 19:00:00,7.0,0,81,0,1016.0,0,1019.0,0,1.5,0,��,0,4.9,0,�k�k��,0,6,0,�Ȃ�,0,0.0,0,,,,,,,,
�k�C���X�y�[�X�|�[�g(�����),2023/05/02 20:00:00,5.7,0,88,0,1016.7,0,1019.7,0,0.5,0,��,0,2.3,0,�k�k��,0,0,0,�Ȃ�,0,0.0,0,,,,,,,,
�k�C���X�y�[�X�|�[�g(�����),2023/05/02 21:00:00,5.1,0,91,0,1016.9,0,1019.9,0,0.6,0,��,0,1.4,0,�k��,0,0,0,�Ȃ�,0,0.0,0,,,,,,,,
�k�C���X�y�[�X�|�[�g(�����),2023/05/02 22:00:00,4.1,0,95,0,1017.1,0,1020.1,0,0.6,0,��,0,1.4,0,�k�k��,0,0,0,�Ȃ�,0,0.0,0,,,,,,,,
�k�C���X�y�[�X�|�[�g(�����),2023/05/02 23:00:00,4.1,0,99,0,1017.6,0,1020.6,0,1.1,0,�쐼,0,1.9,0,�쐼,0,0,0,�Ȃ�,0,0.0,0,,,,,,,,
�k�C���X�y�[�X�|�[�g(�����),2023/05/03 00:00:00,3.3,0,100,0,1017.0,0,1020.0,0,1.1,0,��쐼,0,2.2,0,�쐼,0,0,0,�Ȃ�,0,0.0,0,,,,,,,,
�k�C���X�y�[�X�|�[�g(�����),2023/05/03 01:00:00,3.3,0,100,0,1016.6,0,1019.6,0,0.6,0,��,0,2.1,0,�k��,0,0,0,�Ȃ�,0,0.0,0,,,,,,,,
�k�C���X�y�[�X�|�[�g(�����),2023/05/03 02:00:00,1.8,0,100,0,1016.1,0,1019.1,0,1.9,0,���쐼,0,3.1,0,�쐼,0,0,0,�Ȃ�,0,0.0,0,,,,,,,,
�k�C���X�y�[�X�|�[�g(�����),2023/05/03 03:00:00,1.5,0,100,0,1015.9,0,1018.9,0,1.1,0,��,0,2.3,0,���쐼,0,0,0,�Ȃ�,0,0.0,0,,,,,,,,
�k�C���X�y�[�X�|�[�g(�����),2023/05/03 04:00:00,2.4,0,100,0,1015.8,0,1018.8,0,1.1,0,�k��,0,2.4,0,���쐼,0,0,0,�Ȃ�,0,0.0,0,,,,,,,,
�k�C���X�y�[�X�|�[�g(�����),2023/05/03 05:00:00,1.2,0,99,0,1015.9,0,1018.9,0,1.7,0,�쐼,0,3.7,0,���쐼,0,9,0,�Ȃ�,0,0.0,0,,,,,,,,
�k�C���X�y�[�X�|�[�g(�����),2023/05/03 06:00:00,5.5,0,93,0,1016.2,0,1019.2,0,2.0,0,���쐼,0,3.7,0,���쐼,0,98,0,����,0,0.0,0,,,,,,,,
�k�C���X�y�[�X�|�[�g(�����),2023/05/03 07:00:00,12.9,0,57,0,1016.2,0,1019.1,0,0.5,0,�k��,0,1.6,0,��,0,280,0,����,0,0.0,0,,,,,,,,
�k�C���X�y�[�X�|�[�g(�����),2023/05/03 08:00:00,12.0,0,56,0,1016.2,0,1019.1,0,1.6,0,��,0,2.5,0,���쓌,0,275,0,�Ȃ�,0,0.0,0,,,,,,,,
�k�C���X�y�[�X�|�[�g(�����),2023/05/03 09:00:00,12.8,0,49,0,1015.9,0,1018.8,0,1.0,0,�쓌,0,2.7,0,��쓌,0,332,0,�Ȃ�,0,0.0,0,,,,,,,,
�k�C���X�y�[�X�|�[�g(�����),2023/05/03 10:00:00,15.0,0,36,0,1015.6,0,1018.5,0,1.4,0,���쓌,0,2.1,0,���쓌,0,382,0,�Ȃ�,0,0.0,0,,,,,,,,
�k�C���X�y�[�X�|�[�g(�����),2023/05/03 11:00:00,13.9,0,41,0,1014.9,0,1017.8,0,2.1,0,��쓌,0,3.5,0,�쓌,0,570,0,�Ȃ�,0,0.0,0,,,,,,,,
�k�C���X�y�[�X�|�[�g(�����),2023/05/03 12:00:00,14.8,0,33,0,1014.1,0,1017.0,0,2.5,0,�쓌,0,3.5,0,��쓌,0,649,0,�Ȃ�,0,0.0,0,,,,,,,,
�k�C���X�y�[�X�|�[�g(�����),2023/05/03 13:00:00,13.7,0,42,0,1013.5,0,1016.4,0,2.5,0,�쓌,0,4.3,0,��쓌,0,442,0,�Ȃ�,0,0.0,0,,,,,,,,
�k�C���X�y�[�X�|�[�g(�����),2023/05/03 14:00:00,18.9,0,32,0,1012.4,0,1015.2,0,2.6,0,��쓌,0,4.1,0,��쓌,0,649,0,�Ȃ�,0,0.0,0,,,,,,,,
�k�C���X�y�[�X�|�[�g(�����),2023/05/03 15:00:00,20.7,0,31,0,1011.7,0,1014.5,0,2.0,0,��쐼,0,4.4,0,��,0,367,0,�Ȃ�,0,0.0,0,,,,,,,,
�k�C���X�y�[�X�|�[�g(�����),2023/05/03 16:00:00,22.4,0,27,0,1011.5,0,1014.3,0,5.1,0,��,0,8.5,0,��,0,340,0,�Ȃ�,0,0.0,0,,,,,,,,
�k�C���X�y�[�X�|�[�g(�����),2023/05/03 17:00:00,20.8,0,28,0,1011.8,0,1014.6,0,7.7,0,��,0,12.7,0,��,0,277,0,�Ȃ�,0,0.0,0,,,,,,,,
�k�C���X�y�[�X�|�[�g(�����),2023/05/03 18:00:00,18.3,0,33,0,1011.6,0,1014.4,0,6.4,0,��,0,10.4,0,��,0,65,0,�Ȃ�,0,0.0,0,,,,,,,,
�k�C���X�y�[�X�|�[�g(�����),2023/05/03 19:00:00,17.5,0,32,0,1012.1,0,1014.9,0,5.5,0,���쐼,0,10.3,0,���쐼,0,1,0,�Ȃ�,0,0.0,0,,,,,,,,
�k�C���X�y�[�X�|�[�g(�����),2023/05/03 20:00:00,17.4,0,31,0,1012.8,0,1015.6,0,3.8,0,���쐼,0,7.7,0,���쐼,0,0,0,�Ȃ�,0,0.0,0,,,,,,,,
�k�C���X�y�[�X�|�[�g(�����),2023/05/03 21:00:00,17.1,0,30,0,1012.6,0,1015.4,0,3.0,0,��,0,5.4,0,�쐼,0,0,0,�Ȃ�,0,0.0,0,,,,,,,,
�k�C���X�y�[�X�|�[�g(�����),2023/05/03 22:00:00,12.9,0,43,0,1011.8,0,1014.7,0,2.1,0,��쓌,0,4.5,0,��,0,0,0,�Ȃ�,0,0.0,0,,,,,,,,
�k�C���X�y�[�X�|�[�g(�����),2023/05/03 23:00:00,12.1,0,43,0,1011.0,0,1013.9,0,1.4,0,��,0,3.8,0,��,0,0,0,�Ȃ�,0,0.0,0,,,,,,,,
�k�C���X�y�[�X�|�[�g(�����),2023/05/04 00:00:00,10.3,0,52,0,1010.7,0,1013.6,0,0.8,0,�k�k��,0,3.1,0,�k�k��,0,0,0,�Ȃ�,0,0.0,0,,,,,,,,
�k�C���X�y�[�X�|�[�g(�����),2023/05/04 01:00:00,9.1,0,56,0,1011.0,0,1013.9,0,1.5,0,�k��,0,2.9,0,��,0,0,0,�Ȃ�,0,0.0,0,,,,,,,,
�k�C���X�y�[�X�|�[�g(�����),2023/05/04 02:00:00,9.2,0,60,0,1010.7,0,1013.6,0,1.8,0,�k�k��,0,3.4,0,�쐼,0,0,0,�Ȃ�,0,0.0,0,,,,,,,,
�k�C���X�y�[�X�|�[�g(�����),2023/05/04 03:00:00,7.4,0,64,0,1010.6,0,1013.5,0,2.0,0,���쐼,0,3.1,0,��,0,0,0,�Ȃ�,0,0.0,0,,,,,,,,
�k�C���X�y�[�X�|�[�g(�����),2023/05/04 04:00:00,6.9,0,67,0,1009.8,0,1012.8,0,1.4,0,�쓌,0,3.0,0,�쐼,0,0,0,�Ȃ�,0,0.0,0,,,,,,,,
�k�C���X�y�[�X�|�[�g(�����),2023/05/04 05:00:00,5.9,0,73,0,1009.7,0,1012.7,0,0.8,0,��,0,2.4,0,���쐼,0,11,0,�Ȃ�,0,0.0,0,,,,,,,,
�k�C���X�y�[�X�|�[�g(�����),2023/05/04 06:00:00,9.9,0,72,0,1009.7,0,1012.6,0,0.7,0,�k�k��,0,2.5,0,���쐼,0,101,0,�Ȃ�,0,0.0,0,,,,,,,,
�k�C���X�y�[�X�|�[�g(�����),2023/05/04 07:00:00,15.8,0,51,0,1009.7,0,1012.6,0,0.9,0,�k�k��,0,1.7,0,�k�k��,0,244,0,�Ȃ�,0,0.0,0,,,,,,,,
�k�C���X�y�[�X�|�[�g(�����),2023/05/04 08:00:00,18.0,0,31,0,1009.8,0,1012.6,0,1.8,0,���k��,0,4.0,0,���k��,0,359,0,�Ȃ�,0,0.0,0,,,,,,,,
�k�C���X�y�[�X�|�[�g(�����),2023/05/04 09:00:00,18.5,0,30,0,1009.6,0,1012.4,0,2.0,0,��,0,3.6,0,��,0,462,0,�Ȃ�,0,0.0,0,,,,,,,,
�k�C���X�y�[�X�|�[�g(�����),2023/05/04 10:00:00,16.2,0,34,0,1009.0,0,1011.8,0,1.8,0,�쓌,0,3.5,0,��,0,379,0,�Ȃ�,0,0.0,0,,,,,,,,
�k�C���X�y�[�X�|�[�g(�����),2023/05/04 11:00:00,18.7,0,29,0,1008.2,0,1011.0,0,1.9,0,��쓌,0,2.9,0,��쓌,0,387,0,�Ȃ�,0,0.0,0,,,,,,,,
�k�C���X�y�[�X�|�[�g(�����),2023/05/04 12:00:00,17.1,0,31,0,1007.6,0,1010.4,0,1.8,0,��쓌,0,4.3,0,�쓌,0,327,0,�Ȃ�,0,0.0,0,,,,,,,,
�k�C���X�y�[�X�|�[�g(�����),2023/05/04 13:00:00,18.4,0,30,0,1007.0,0,1009.8,0,1.4,0,�쓌,0,3.4,0,��쓌,0,313,0,�Ȃ�,0,0.0,0,,,,,,,,
�k�C���X�y�[�X�|�[�g(�����),2023/05/04 14:00:00,17.9,0,34,0,1006.5,0,1009.3,0,1.4,0,�쐼,0,2.6,0,��,0,186,0,�Ȃ�,0,0.0,0,,,,,,,,
�k�C���X�y�[�X�|�[�g(�����),2023/05/04 15:00:00,18.9,0,37,0,1005.7,0,1008.5,0,0.4,0,�k�k��,0,2.1,0,��쐼,0,162,0,�Ȃ�,0,0.0,0,,,,,,,,
�k�C���X�y�[�X�|�[�g(�����),2023/05/04 16:00:00,22.8,0,27,0,1005.2,0,1008.0,0,8.4,0,���쐼,0,12.0,0,���쐼,0,296,0,�Ȃ�,0,0.0,0,,,,,,,,
�k�C���X�y�[�X�|�[�g(�����),2023/05/04 17:00:00,21.3,0,29,0,1005.3,0,1008.1,0,6.4,0,���쐼,0,11.7,0,���쐼,0,181,0,�Ȃ�,0,0.0,0,,,,,,,,
�k�C���X�y�[�X�|�[�g(�����),2023/05/04 18:00:00,19.3,0,38,0,1005.8,0,1008.6,0,8.5,0,���쐼,0,13.2,0,��,0,57,0,�Ȃ�,0,0.0,0,,,,,,,,
�k�C���X�y�[�X�|�[�g(�����),2023/05/04 19:00:00,18.8,0,39,0,1005.4,0,1008.2,0,8.1,0,���쐼,0,13.0,0,���쐼,0,2,0,�Ȃ�,0,0.0,0,,,,,,,,
�k�C���X�y�[�X�|�[�g(�����),2023/05/04 20:00:00,18.4,0,42,0,1005.6,0,1008.4,0,5.7,0,���쐼,0,10.6,0,���쐼,0,0,0,�Ȃ�,0,0.0,0,,,,,,,,
�k�C���X�y�[�X�|�[�g(�����),2023/05/04 21:00:00,18.4,0,39,0,1004.9,0,1007.7,0,6.4,0,�쐼,0,12.2,0,���쐼,0,0,0,�Ȃ�,0,0.0,0,,,,,,,,
�k�C���X�y�[�X�|�[�g(�����),2023/05/04 22:00:00,19.0,0,34,0,1004.6,0,1007.4,0,7.9,0,���쐼,0,13.0,0,���쐼,0,0,0,�Ȃ�,0,0.0,0,,,,,,,,
�k�C���X�y�[�X�|�[�g(�����),2023/05/04 23:00:00,18.3,0,37,0,1004.5,0,1007.3,0,6.6,0,���쐼,0,14.7,0,���쐼,0,0,0,�Ȃ�,0,0.0,0,,,,,,,,
�k�C���X�y�[�X�|�[�g(�����),2023/05/05 00:00:00,17.4,0,41,0,1004.2,0,1007.0,0,3.8,0,�쐼,0,9.4,0,���쐼,0,0,0,�Ȃ�,0,0.0,0,,,,,,,,
�k�C���X�y�[�X�|�[�g(�����),2023/05/05 01:00:00,17.1,0,40,0,1003.7,0,1006.5,0,3.5,0,�쐼,0,7.1,0,�쐼,0,0,0,�Ȃ�,0,0.0,0,,,,,,,,
�k�C���X�y�[�X�|�[�g(�����),2023/05/05 02:00:00,13.2,0,51,0,1003.9,0,1006.8,0,0.7,0,��,0,4.7,0,�쐼,0,0,0,�Ȃ�,0,0.0,0,,,,,,,,
�k�C���X�y�[�X�|�[�g(�����),2023/05/05 03:00:00,11.3,0,59,0,1004.2,0,1007.1,0,0.9,0,���k��,0,3.2,0,�k�k��,0,0,0,�Ȃ�,0,0.0,0,,,,,,,,
�k�C���X�y�[�X�|�[�g(�����),2023/05/05 04:00:00,10.3,0,66,0,1004.8,0,1007.7,0,0.7,0,���k��,0,2.5,0,�k�k��,0,0,0,�Ȃ�,0,0.0,0,,,,,,,,
�k�C���X�y�[�X�|�[�g(�����),2023/05/05 05:00:00,9.5,0,71,0,1005.5,0,1008.4,0,1.4,0,�쐼,0,2.0,0,�쐼,0,11,0,�Ȃ�,0,0.0,0,,,,,,,,
�k�C���X�y�[�X�|�[�g(�����),2023/05/05 06:00:00,15.0,0,59,0,1006.4,0,1009.3,0,2.7,0,�k��,0,4.5,0,�k��,0,89,0,�Ȃ�,0,0.0,0,,,,,,,,
�k�C���X�y�[�X�|�[�g(�����),2023/05/05 07:00:00,17.6,0,53,0,1006.9,0,1009.7,0,3.5,0,�k�k��,0,6.9,0,�k�k��,0,196,0,�Ȃ�,0,0.0,0,,,,,,,,
�k�C���X�y�[�X�|�[�g(�����),2023/05/05 08:00:00,19.1,0,43,0,1007.0,0,1009.8,0,3.5,0,�k��,0,7.0,0,�k�k��,0,358,0,�Ȃ�,0,0.0,0,,,,,,,,
�k�C���X�y�[�X�|�[�g(�����),2023/05/05 09:00:00,14.6,0,52,0,1007.3,0,1010.2,0,2.8,0,�쓌,0,5.3,0,���k��,0,561,0,�Ȃ�,0,0.0,0,,,,,,,,
�k�C���X�y�[�X�|�[�g(�����),2023/05/05 10:00:00,16.0,0,52,0,1007.1,0,1009.9,0,3.9,0,��,0,6.4,0,��,0,740,0,�Ȃ�,0,0.0,0,,,,,,,,
�k�C���X�y�[�X�|�[�g(�����),2023/05/05 11:00:00,17.4,0,49,0,1006.7,0,1009.5,0,4.3,0,��,0,7.7,0,��,0,765,0,�Ȃ�,0,0.0,0,,,,,,,,
�k�C���X�y�[�X�|�[�g(�����),2023/05/05 12:00:00,16.1,0,53,0,1005.7,0,1008.5,0,3.9,0,��,0,8.1,0,��,0,725,0,�Ȃ�,0,0.0,0,,,,,,,,
�k�C���X�y�[�X�|�[�g(�����),2023/05/05 13:00:00,15.5,0,56,0,1005.6,0,1008.4,0,2.6,0,��,0,6.1,0,��,0,502,0,�Ȃ�,0,0.0,0,,,,,,,,
�k�C���X�y�[�X�|�[�g(�����),2023/05/05 14:00:00,16.2,0,56,0,1004.8,0,1007.6,0,2.1,0,�쓌,0,5.3,0,��쓌,0,486,0,�Ȃ�,0,0.0,0,,,,,,,,
�k�C���X�y�[�X�|�[�g(�����),2023/05/05 15:00:00,15.1,0,56,0,1004.2,0,1007.0,0,2.7,0,��,0,4.4,0,��,0,467,0,�Ȃ�,0,0.0,0,,,,,,,,
�k�C���X�y�[�X�|�[�g(�����),2023/05/05 16:00:00,15.9,0,58,0,1004.0,0,1006.8,0,1.0,0,�k�k��,0,3.8,0,��,0,307,0,�Ȃ�,0,0.0,0,,,,,,,,
�k�C���X�y�[�X�|�[�g(�����),2023/05/05 17:00:00,13.5,0,60,0,1004.1,0,1007.0,0,1.4,0,���k��,0,3.5,0,��,0,199,0,�Ȃ�,0,0.0,0,,,,,,,,
�k�C���X�y�[�X�|�[�g(�����),2023/05/05 18:00:00,11.3,0,75,0,1004.3,0,1007.2,0,1.7,0,���k��,0,3.6,0,���k��,0,43,0,�Ȃ�,0,0.0,0,,,,,,,,
�k�C���X�y�[�X�|�[�g(�����),2023/05/05 19:00:00,8.9,0,85,0,1004.7,0,1007.6,0,2.8,0,��,0,4.8,0,��,0,1,0,�Ȃ�,0,0.0,0,,,,,,,,
�k�C���X�y�[�X�|�[�g(�����),2023/05/05 20:00:00,9.6,0,89,0,1005.8,0,1008.7,0,2.1,0,�k��,0,4.4,0,�k�k��,0,0,0,�Ȃ�,0,0.0,0,,,,,,,,
�k�C���X�y�[�X�|�[�g(�����),2023/05/05 21:00:00,9.2,0,86,0,1005.9,0,1008.8,0,2.9,0,�k��,0,5.9,0,���k��,0,0,0,�Ȃ�,0,0.0,0,,,,,,,,
�k�C���X�y�[�X�|�[�g(�����),2023/05/05 22:00:00,8.4,0,94,0,1006.4,0,1009.3,0,1.2,0,�k��,0,4.7,0,��,0,0,0,����,0,0.5,0,,,,,,,,
�k�C���X�y�[�X�|�[�g(�����),2023/05/05 23:00:00,8.4,0,99,0,1005.7,0,1008.6,0,1.0,0,�k�k��,0,3.7,0,�k�k��,0,0,0,����,0,0.5,0,,,,,,,,
�k�C���X�y�[�X�|�[�g(�����),2023/05/06 00:00:00,8.4,0,98,0,1005.3,0,1008.2,0,0.6,0,�k��,0,1.4,0,�k��,0,0,0,����,0,0.0,0,,,,,,,,
�k�C���X�y�[�X�|�[�g(�����),2023/05/06 01:00:00,8.3,0,100,0,1005.1,0,1008.0,0,0.5,0,�k��,0,1.9,0,�k�k��,0,0,0,����,0,0.5,0,,,,,,,,
�k�C���X�y�[�X�|�[�g(�����),2023/05/06 02:00:00,7.8,0,100,0,1004.3,0,1007.2,0,1.1,0,�k��,0,2.4,0,���k��,0,0,0,����,0,0.5,0,,,,,,,,
�k�C���X�y�[�X�|�[�g(�����),2023/05/06 03:00:00,7.7,0,100,0,1003.7,0,1006.6,0,1.5,0,�k�k��,0,3.3,0,�k�k��,0,0,0,����,0,0.5,0,,,,,,,,
�k�C���X�y�[�X�|�[�g(�����),2023/05/06 04:00:00,7.3,0,100,0,1003.8,0,1006.7,0,1.3,0,�k��,0,4.1,0,�k�k��,0,0,0,����,0,0.0,0,,,,,,,,
�k�C���X�y�[�X�|�[�g(�����),2023/05/06 05:00:00,7.3,0,100,0,1003.8,0,1006.7,0,1.6,0,�k��,0,3.3,0,�k��,0,0,0,����,0,0.0,0,,,,,,,,
�k�C���X�y�[�X�|�[�g(�����),2023/05/06 06:00:00,6.9,0,100,0,1004.2,0,1007.1,0,2.2,0,���k��,0,4.9,0,��,0,13,0,����,0,0.5,0,,,,,,,,
�k�C���X�y�[�X�|�[�g(�����),2023/05/06 07:00:00,6.8,0,100,0,1004.7,0,1007.6,0,2.5,0,���k��,0,5.9,0,���k��,0,42,0,����,0,0.5,0,,,,,,,,
�k�C���X�y�[�X�|�[�g(�����),2023/05/06 08:00:00,6.7,0,100,0,1004.7,0,1007.6,0,2.1,0,�k��,0,5.3,0,�k�k��,0,46,0,����,0,0.0,0,,,,,,,,
�k�C���X�y�[�X�|�[�g(�����),2023/05/06 09:00:00,6.7,0,100,0,1004.8,0,1007.7,0,1.9,0,���k��,0,5.1,0,���k��,0,80,0,����,0,0.0,0,,,,,,,,
�k�C���X�y�[�X�|�[�g(�����),2023/05/06 10:00:00,6.5,0,100,0,1005.2,0,1008.1,0,2.7,0,���k��,0,6.3,0,���k��,0,88,0,����,0,0.0,0,,,,,,,,
�k�C���X�y�[�X�|�[�g(�����),2023/05/06 11:00:00,6.7,0,100,0,1005.0,0,1007.9,0,2.3,0,���k��,0,5.7,0,���k��,0,119,0,����,0,0.0,0,,,,,,,,
�k�C���X�y�[�X�|�[�g(�����),2023/05/06 12:00:00,7.0,0,100,0,1005.1,0,1008.0,0,1.5,0,�k��,0,4.7,0,��,0,170,0,�Ȃ�,0,0.0,0,,,,,,,,
�k�C���X�y�[�X�|�[�g(�����),2023/05/06 13:00:00,7.4,0,97,0,1005.2,0,1008.1,0,1.7,0,���k��,0,5.3,0,�k��,0,219,0,����,0,0.0,0,,,,,,,,
�k�C���X�y�[�X�|�[�g(�����),2023/05/06 14:00:00,7.0,0,95,0,1005.2,0,1008.1,0,2.7,0,��,0,4.4,0,���k��,0,174,0,�Ȃ�,0,0.0,0,,,,,,,,
�k�C���X�y�[�X�|�[�g(�����),2023/05/06 15:00:00,6.5,0,94,0,1005.6,0,1008.5,0,2.3,0,��,0,3.7,0,���k��,0,121,0,�Ȃ�,0,0.0,0,,,,,,,,
�k�C���X�y�[�X�|�[�g(�����),2023/05/06 16:00:00,6.2,0,97,0,1006.4,0,1009.4,0,1.5,0,���쓌,0,3.0,0,���쓌,0,72,0,�Ȃ�,0,0.0,0,,,,,,,,
�k�C���X�y�[�X�|�[�g(�����),2023/05/06 17:00:00,5.9,0,100,0,1007.2,0,1010.2,0,1.1,0,���쓌,0,1.9,0,�쓌,0,39,0,����,0,0.0,0,,,,,,,,
�k�C���X�y�[�X�|�[�g(�����),2023/05/06 18:00:00,5.8,0,100,0,1007.9,0,1010.9,0,1.2,0,���쓌,0,2.3,0,���쓌,0,18,0,����,0,0.5,0,,,,,,,,
�k�C���X�y�[�X�|�[�g(�����),2023/05/06 19:00:00,5.6,0,100,0,1008.9,0,1011.9,0,0.4,0,�쓌,0,2.4,0,�쓌,0,0,0,����,0,0.0,0,,,,,,,,
�k�C���X�y�[�X�|�[�g(�����),2023/05/06 20:00:00,5.6,0,100,0,1009.6,0,1012.6,0,0.4,0,�쓌,0,1.5,0,���k��,0,0,0,����,0,0.0,0,,,,,,,,
�k�C���X�y�[�X�|�[�g(�����),2023/05/06 21:00:00,5.7,0,100,0,1010.4,0,1013.4,0,0.3,0,���k��,0,1.0,0,���k��,0,0,0,����,0,0.0,0,,,,,,,,
�k�C���X�y�[�X�|�[�g(�����),2023/05/06 22:00:00,5.5,0,100,0,1010.9,0,1013.9,0,0.5,0,�k,0,2.2,0,�k��,0,0,0,�Ȃ�,0,0.0,0,,,,,,,,
�k�C���X�y�[�X�|�[�g(�����),2023/05/06 23:00:00,5.3,0,98,0,1011.2,0,1014.2,0,1.1,0,���k��,0,2.6,0,���k��,0,0,0,�Ȃ�,0,0.0,0,,,,,,,,
�k�C���X�y�[�X�|�[�g(�����),2023/05/07 00:00:00,5.1,0,90,0,1011.4,0,1014.4,0,0.8,0,���k��,0,2.7,0,���k��,0,0,0,�Ȃ�,0,0.0,0,,,,,,,,
�k�C���X�y�[�X�|�[�g(�����),2023/05/07 01:00:00,4.8,0,83,0,1011.2,0,1014.2,0,1.0,0,���k��,0,2.6,0,��,0,0,0,�Ȃ�,0,0.0,0,,,,,,,,
�k�C���X�y�[�X�|�[�g(�����),2023/05/07 02:00:00,4.8,0,85,0,1011.3,0,1014.3,0,0.4,0,���k��,0,2.0,0,��,0,0,0,�Ȃ�,0,0.0,0,,,,,,,,
�k�C���X�y�[�X�|�[�g(�����),2023/05/07 03:00:00,4.7,0,95,0,1011.5,0,1014.5,0,0.6,0,�k�k��,0,1.1,0,�k�k��,0,0,0,�Ȃ�,0,0.0,0,,,,,,,,
�k�C���X�y�[�X�|�[�g(�����),2023/05/07 04:00:00,4.6,0,94,0,1011.7,0,1014.7,0,0.6,0,�k��,0,1.8,0,�k�k��,0,0,0,�Ȃ�,0,0.0,0,,,,,,,,
�k�C���X�y�[�X�|�[�g(�����),2023/05/07 05:00:00,4.7,0,94,0,1012.3,0,1015.3,0,0.7,0,���k��,0,1.3,0,�k�k��,0,10,0,�Ȃ�,0,0.0,0,,,,,,,,
�k�C���X�y�[�X�|�[�g(�����),2023/05/07 06:00:00,5.5,0,90,0,1013.2,0,1016.2,0,0.9,0,�k�k��,0,1.6,0,�k��,0,73,0,�Ȃ�,0,0.0,0,,,,,,,,
�k�C���X�y�[�X�|�[�g(�����),2023/05/07 07:00:00,5.7,0,83,0,1013.5,0,1016.5,0,2.5,0,���k��,0,4.6,0,��,0,137,0,�Ȃ�,0,0.0,0,,,,,,,,
�k�C���X�y�[�X�|�[�g(�����),2023/05/07 08:00:00,6.1,0,82,0,1013.7,0,1016.7,0,3.8,0,��,0,5.5,0,���k��,0,346,0,�Ȃ�,0,0.0,0,,,,,,,,
�k�C���X�y�[�X�|�[�g(�����),2023/05/07 09:00:00,6.2,0,78,0,1014.0,0,1017.0,0,2.9,0,��,0,5.7,0,��,0,400,0,�Ȃ�,0,0.0,0,,,,,,,,
�k�C���X�y�[�X�|�[�g(�����),2023/05/07 10:00:00,6.4,0,72,0,1013.9,0,1016.9,0,3.6,0,���쓌,0,5.5,0,��,0,687,0,�Ȃ�,0,0.0,0,,,,,,,,
�k�C���X�y�[�X�|�[�g(�����),2023/05/07 11:00:00,6.8,0,71,0,1013.3,0,1016.3,0,3.9,0,�쓌,0,6.4,0,�쓌,0,871,0,�Ȃ�,0,0.0,0,,,,,,,,
�k�C���X�y�[�X�|�[�g(�����),2023/05/07 12:00:00,7.1,0,72,0,1013.0,0,1016.0,0,3.3,0,�쓌,0,5.8,0,�쓌,0,758,0,�Ȃ�,0,0.0,0,,,,,,,,
�k�C���X�y�[�X�|�[�g(�����),2023/05/07 13:00:00,7.4,0,65,0,1013.0,0,1016.0,0,3.7,0,��쓌,0,6.1,0,�쓌,0,741,0,�Ȃ�,0,0.0,0,,,,,,,,
�k�C���X�y�[�X�|�[�g(�����),2023/05/07 14:00:00,7.2,0,72,0,1012.7,0,1015.7,0,4.2,0,��,0,6.5,0,��,0,660,0,�Ȃ�,0,0.0,0,,,,,,,,
�k�C���X�y�[�X�|�[�g(�����),2023/05/07 15:00:00,7.3,0,72,0,1013.0,0,1016.0,0,4.3,0,��,0,7.2,0,��쓌,0,547,0,�Ȃ�,0,0.0,0,,,,,,,,
�k�C���X�y�[�X�|�[�g(�����),2023/05/07 16:00:00,6.6,0,71,0,1013.1,0,1016.1,0,3.9,0,��,0,7.2,0,��쓌,0,391,0,�Ȃ�,0,0.0,0,,,,,,,,
�k�C���X�y�[�X�|�[�g(�����),2023/05/07 17:00:00,6.5,0,71,0,1013.2,0,1016.2,0,3.4,0,��,0,6.0,0,��쐼,0,230,0,�Ȃ�,0,0.0,0,,,,,,,,
�k�C���X�y�[�X�|�[�g(�����),2023/05/07 18:00:00,5.8,0,76,0,1013.9,0,1016.9,0,2.5,0,�쓌,0,5.2,0,��쓌,0,86,0,�Ȃ�,0,0.0,0,,,,,,,,
�k�C���X�y�[�X�|�[�g(�����),2023/05/07 19:00:00,5.2,0,87,0,1014.8,0,1017.8,0,2.0,0,���쓌,0,4.2,0,��쓌,0,8,0,�Ȃ�,0,0.0,0,,,,,,,,
�k�C���X�y�[�X�|�[�g(�����),2023/05/07 20:00:00,5.4,0,90,0,1015.1,0,1018.1,0,1.7,0,���쓌,0,3.1,0,�쓌,0,0,0,�Ȃ�,0,0.0,0,,,,,,,,
�k�C���X�y�[�X�|�[�g(�����),2023/05/07 21:00:00,5.5,0,91,0,1015.3,0,1018.3,0,1.1,0,���쓌,0,2.6,0,�쓌,0,0,0,�Ȃ�,0,0.0,0,,,,,,,,
�k�C���X�y�[�X�|�[�g(�����),2023/05/07 22:00:00,4.3,0,94,0,1014.8,0,1017.8,0,0.2,0,�k�k��,0,1.4,0,�k�k��,0,0,0,�Ȃ�,0,0.0,0,,,,,,,,
�k�C���X�y�[�X�|�[�g(�����),2023/05/07 23:00:00,4.2,0,99,0,1014.7,0,1017.7,0,0.5,0,�k��,0,1.5,0,�k�k��,0,0,0,�Ȃ�,0,0.0,0,,,,,,,,
�k�C���X�y�[�X�|�[�g(�����),2023/05/08 00:00:00,4.1,0,100,0,1013.9,0,1016.9,0,0.7,0,�k�k��,0,1.9,0,�k�k��,0,0,0,�Ȃ�,0,0.0,0,,,,,,,,
�k�C���X�y�[�X�|�[�g(�����),2023/05/08 01:00:00,4.2,0,100,0,1013.3,0,1016.3,0,1.0,0,�k�k��,0,2.3,0,�k�k��,0,0,0,�Ȃ�,0,0.0,0,,,,,,,,
�k�C���X�y�[�X�|�[�g(�����),2023/05/08 02:00:00,4.1,0,100,0,1012.6,0,1015.6,0,1.1,0,�k�k��,0,3.0,0,�k�k��,0,0,0,�Ȃ�,0,0.0,0,,,,,,,,
�k�C���X�y�[�X�|�[�g(�����),2023/05/08 03:00:00,3.9,0,100,0,1012.2,0,1015.2,0,0.3,0,�k�k��,0,3.0,0,�k�k��,0,0,0,�Ȃ�,0,0.0,0,,,,,,,,
�k�C���X�y�[�X�|�[�g(�����),2023/05/08 04:00:00,4.1,0,99,0,1012.2,0,1015.2,0,0.6,0,�k�k��,0,2.7,0,�k�k��,0,0,0,�Ȃ�,0,0.0,0,,,,,,,,
�k�C���X�y�[�X�|�[�g(�����),2023/05/08 05:00:00,4.2,0,98,0,1012.0,0,1015.0,0,1.0,0,�k�k��,0,2.1,0,�k�k��,0,3,0,�Ȃ�,0,0.0,0,,,,,,,,
�k�C���X�y�[�X�|�[�g(�����),2023/05/08 06:00:00,4.8,0,97,0,1012.1,0,1015.1,0,0.7,0,�k,0,2.6,0,�k�k��,0,27,0,�Ȃ�,0,0.0,0,,,,,,,,
�k�C���X�y�[�X�|�[�g(�����),2023/05/08 07:00:00,5.2,0,92,0,1012.0,0,1015.0,0,2.5,0,��,0,3.6,0,��,0,58,0,����,0,0.0,0,,,,,,,,
�k�C���X�y�[�X�|�[�g(�����),2023/05/08 08:00:00,4.6,0,79,0,1011.5,0,1014.5,0,1.5,0,���k��,0,6.9,0,��,0,105,0,����,0,0.0,0,,,,,,,,
�k�C���X�y�[�X�|�[�g(�����),2023/05/08 09:00:00,4.4,0,89,0,1010.8,0,1013.8,0,2.9,0,���k��,0,5.6,0,��,0,136,0,����,0,0.5,0,,,,,,,,
�k�C���X�y�[�X�|�[�g(�����),2023/05/08 10:00:00,4.5,0,84,0,1010.3,0,1013.3,0,2.3,0,�k��,0,4.5,0,�k��,0,208,0,�Ȃ�,0,0.0,0,,,,,,,,
�k�C���X�y�[�X�|�[�g(�����),2023/05/08 11:00:00,4.8,0,84,0,1009.5,0,1012.5,0,2.7,0,���k��,0,6.7,0,���k��,0,186,0,����,0,0.0,0,,,,,,,,
�k�C���X�y�[�X�|�[�g(�����),2023/05/08 12:00:00,5.3,0,82,0,1008.5,0,1011.5,0,2.5,0,���k��,0,6.2,0,���k��,0,303,0,����,0,0.0,0,,,,,,,,
�k�C���X�y�[�X�|�[�g(�����),2023/05/08 13:00:00,4.7,0,86,0,1007.6,0,1010.6,0,2.2,0,���k��,0,6.0,0,���k��,0,277,0,����,0,0.0,0,,,,,,,,
�k�C���X�y�[�X�|�[�g(�����),2023/05/08 14:00:00,4.5,0,90,0,1007.0,0,1010.0,0,1.6,0,���k��,0,4.2,0,���k��,0,146,0,����,0,0.0,0,,,,,,,,